[[{"header":{"parameterUnit":"m.s-1","parameterCategory":1,"la1":30.2991,"la2":30.254,"lo1":-89.0895,"lo2":-89.0444,"dy":0.0017,"dx":0.0017,"nx":28,"ny":28,"refTime":"2024-08-02T09:00:00:Z","depth":0,"parameterNumber":2,"parameterNumberName":"U-component_of_WINDS"},"data":[0,0,0,0,0,0,0,0,0,0,0,0,0,0,0,0,0,0,0,0,0,0,0,0,0,0,0,0,0,0,0,0,0,0,0,0,0,0,0,0,0,0,0,0,0,0,0,0,0,0,0,0,0,0,0,0,0,0,3.7202,3.7203,0,3.7338,3.734,3.7341,3.7309,3.7306,3.7303,3.7301,3.7442,3.7448,3.7454,0,0,0,0,0,0,0,0,0,0,0,0,0,3.6912,3.6917,3.7201,3.7203,3.7205,3.7338,3.734,3.7342,3.7309,3.7306,3.7303,3.73,3.744,3.7447,3.7455,0,0,0,0,0,0,0,0,0,0,0,0,0,3.7042,3.6919,3.7201,3.7205,3.7206,3.7338,3.734,3.7342,3.731,3.7306,3.7302,3.7298,3.7437,3.7447,3.7456,3.7592,0,0,3.7484,3.7488,0,0,0,0,0,0,0,0,3.7035,3.7053,3.7202,3.7205,3.7207,3.7302,3.7289,3.7426,3.7311,3.7271,3.7301,3.7296,3.7399,3.7411,3.7445,3.7599,3.7605,3.7485,3.7491,3.7495,3.7497,0,0,0,0,0,0,0,3.7026,3.7047,3.7256,3.7205,3.7207,3.7199,3.7213,3.7315,3.7355,3.7274,3.7272,3.7288,3.7399,3.7436,3.7448,3.7607,3.7485,3.7493,3.7499,3.7502,3.7878,3.7882,0,0,0,0,0,0,3.7015,3.7039,3.7251,3.726,3.7109,3.7208,3.7223,3.7276,3.7354,3.7362,3.7292,3.7286,3.7423,3.7438,3.7453,3.7618,3.7495,3.7503,3.7509,3.7874,3.7879,3.7884,0,0,0,0,0,0,3.7009,3.7034,3.7246,3.7149,3.7175,3.7217,3.7276,3.728,3.7318,3.7367,3.7374,3.7322,3.742,3.744,3.7558,3.7622,3.7508,3.7516,3.7869,3.7876,3.7882,3.7948,0,0,0,0,0,0,3.7,3.7032,3.7085,3.715,3.7181,3.7348,3.728,3.7286,3.7334,3.7328,3.7398,3.7406,3.7418,3.7544,3.7567,3.7633,3.7523,3.7863,3.7872,3.7879,3.794,3.7956,3.7969,0,0,0,0,0,3.699,3.7098,3.7087,3.7113,3.7247,3.7352,3.7369,3.7381,3.7339,3.7392,3.7424,3.7404,3.7611,3.7556,3.7582,3.7652,3.7859,3.7869,3.7879,3.7934,3.7953,3.7969,0,0,0,0,0,0,3.7039,3.7107,3.7096,3.7228,3.7285,3.7346,3.7413,3.7401,3.7471,3.7463,3.7475,3.7491,3.7611,3.7643,3.758,3.7787,3.7729,3.7745,3.7762,3.7781,3.7795,3.7785,3.7531,0,0,0,0,0,3.7066,3.7145,3.72,3.7311,3.734,3.7372,3.7418,3.7422,3.7481,3.7505,3.7545,3.7603,3.7681,3.7733,3.7808,3.7944,3.7959,3.8005,3.8019,3.8031,3.8045,3.8118,3.8139,3.7916,3.7916,3.7916,0,0,3.7121,3.7167,3.7217,3.7322,3.7367,3.7448,3.7392,3.7482,3.7542,3.7519,3.7632,3.7663,3.7729,3.7856,3.7914,3.7887,3.8109,3.8044,3.8053,3.806,3.8131,3.8152,3.817,3.7923,3.7922,3.7921,0,0,3.7263,3.7306,3.7404,3.7449,3.7516,3.7536,3.7559,3.7623,3.7643,3.7756,3.774,3.7812,3.7947,3.7994,3.8036,3.8194,3.8178,3.8218,3.8295,3.8366,3.8384,3.8399,3.8455,3.8475,3.8231,3.8231,3.8231,0,3.7323,3.7446,3.7455,3.7546,3.7592,3.7574,3.7672,3.7716,3.7804,3.7836,3.7804,3.7971,3.8014,3.8152,3.819,3.8225,3.8252,3.821,3.838,3.8396,3.8411,3.8464,3.8485,3.8235,3.8235,3.8235,3.8234,0,3.7516,3.7601,3.7671,3.7756,3.7811,3.7905,3.7929,3.7982,3.7981,3.8005,3.812,3.8171,3.8255,3.8288,3.8288,3.8426,3.8406,3.8377,3.8319,3.8436,3.8487,3.8507,3.8242,3.824,3.8239,3.8238,0,0,3.7694,3.7782,3.7808,3.7846,3.7918,3.7984,3.8076,3.8158,3.8204,3.8265,3.8343,3.8456,3.8429,3.8476,3.8482,3.8545,3.8666,3.8508,3.8509,3.8535,3.8819,3.8841,3.8864,3.8655,3.8659,3.8663,3.8814,0,3.7842,3.8005,3.8016,3.8164,3.8242,3.8225,3.8305,3.8358,3.8382,3.8452,3.8479,3.8559,3.8518,3.8546,3.8607,3.8638,3.8723,3.8627,3.8728,3.8731,3.8712,3.8891,3.8914,3.9054,3.8834,3.8837,3.8839,0,3.8037,3.8103,3.8259,3.8318,3.8352,3.8424,3.8499,3.8566,3.8625,3.8638,3.869,3.8686,3.8781,3.8719,3.8849,3.8784,3.8825,3.8847,3.8852,3.8862,3.8792,3.8905,3.91,3.9121,3.8871,3.8868,3.8866,0,3.815,3.8279,3.8388,3.8421,3.8494,3.8545,3.8578,3.8633,3.8681,3.8746,3.8777,3.8853,3.8895,3.8954,3.897,3.8924,3.91,3.9039,3.9113,3.9113,3.9151,3.9149,3.9355,3.9178,3.9178,3.9177,3.9177,0,3.8315,3.8411,3.844,3.8507,3.8613,3.8624,3.8729,3.8759,3.8808,3.888,3.887,3.8938,3.8955,3.9027,3.904,3.9145,3.9164,3.9177,3.918,3.9178,3.9177,3.9206,3.9196,3.9183,3.9182,3.9181,3.918,0,3.846,3.8484,3.8601,3.866,3.8677,3.8753,3.8803,3.8867,3.8889,3.8981,3.9003,3.9038,3.9121,3.9143,3.9243,3.9252,3.9376,3.9369,3.9356,3.9356,3.9428,3.9421,3.966,3.9692,3.9494,3.9496,3.9498,0,3.8564,3.8637,3.8703,3.875,3.8785,3.8862,3.8911,3.8924,3.8975,3.9047,3.9103,3.9184,3.925,3.9384,3.9418,3.9494,3.9489,3.9567,3.95,3.9496,3.949,3.9485,3.9492,3.958,3.9582,3.9584,3.9586,0,3.8745,3.8752,3.8823,3.8897,3.8956,3.9015,3.9072,3.9111,3.9132,3.919,3.9275,3.9326,3.9427,3.9508,3.9584,3.9617,3.9605,3.9606,3.9627,3.9627,3.9616,3.9622,3.939,3.9601,3.9599,3.9598,3.9597,3.9597,3.8872,3.8936,3.8992,3.9071,3.9115,3.9168,3.9231,3.926,3.9331,3.9414,3.9417,3.9509,3.9565,3.9666,3.9703,3.9775,3.9752,3.9782,3.979,3.9797,3.9803,3.9604,3.9789,3.9789,3.9788,3.9788,3.9788,0,3.9052,3.9087,3.9159,3.9239,3.93,3.9283,3.9344,3.9397,3.9478,3.9531,3.9596,3.9692,3.977,3.981,3.9888,3.9937,3.9934,3.9957,3.9954,3.9961,3.982,3.9794,3.9959,3.9959,3.9959,3.9959,3.9959,3.9959,3.9153,3.926,3.9274,3.9402,3.9436,3.9526,3.9562,3.9611,3.9653,3.9761,3.9826,3.9851,3.9899,3.9979,4.005,4.0059,4.0088,4.0115,4.0122,3.9989,3.9972,3.9955,3.993,4.0121,4.0121,4.0257,4.0258,4.0259]},{"header":{"parameterUnit":"m.s-1","parameterCategory":1,"la1":30.2991,"la2":30.254,"lo1":-89.0895,"lo2":-89.0444,"dy":0.0017,"dx":0.0017,"nx":28,"ny":28,"refTime":"2024-08-02T09:00:00:Z","depth":0,"parameterNumber":3,"parameterNumberName":"V-component_of_WINDS"},"data":[0,0,0,0,0,0,0,0,0,0,0,0,0,0,0,0,0,0,0,0,0,0,0,0,0,0,0,0,0,0,0,0,0,0,0,0,0,0,0,0,0,0,0,0,0,0,0,0,0,0,0,0,0,0,0,0,0,0,5.3629,5.3632,0,5.3846,5.3848,5.3851,5.385,5.3847,5.3844,5.3842,5.406,5.4068,5.4076,0,0,0,0,0,0,0,0,0,0,0,0,0,5.321,5.3218,5.3629,5.3632,5.3635,5.3845,5.3848,5.3851,5.385,5.3847,5.3844,5.384,5.4057,5.4067,5.4077,0,0,0,0,0,0,0,0,0,0,0,0,0,5.3406,5.322,5.3629,5.366,5.3665,5.3845,5.3848,5.3852,5.3851,5.3847,5.3843,5.3839,5.4053,5.4066,5.4078,5.4241,0,0,5.4117,5.4122,0,0,0,0,0,0,0,0,5.3395,5.3421,5.3652,5.3658,5.3664,5.3817,5.378,5.3982,5.3852,5.378,5.3842,5.3837,5.3982,5.4,5.405,5.4251,5.426,5.4118,5.4126,5.4131,5.4135,0,0,0,0,0,0,0,5.3381,5.3412,5.3715,5.3656,5.3663,5.3661,5.3684,5.3819,5.3902,5.3786,5.3787,5.3812,5.3984,5.4038,5.4055,5.4263,5.4118,5.4129,5.4137,5.4141,5.4605,5.461,0,0,0,0,0,0,5.3362,5.34,5.3708,5.3721,5.3516,5.3672,5.3698,5.3772,5.39,5.3916,5.3816,5.3812,5.4018,5.404,5.4063,5.426,5.4131,5.4143,5.415,5.4601,5.4607,5.4612,0,0,0,0,0,0,5.3353,5.3389,5.3699,5.3561,5.36,5.3684,5.3767,5.3778,5.3832,5.3923,5.3937,5.3856,5.4016,5.4045,5.4196,5.4268,5.4148,5.416,5.4595,5.4603,5.4609,5.4657,0,0,0,0,0,0,5.3341,5.3386,5.345,5.3563,5.3608,5.3831,5.3771,5.3785,5.3854,5.3851,5.3964,5.3979,5.4015,5.4177,5.4209,5.4283,5.417,5.4589,5.4598,5.4607,5.4649,5.4665,5.4678,0,0,0,0,0,5.3326,5.3455,5.3453,5.349,5.369,5.3835,5.3861,5.39,5.386,5.3924,5.3982,5.3975,5.4254,5.4193,5.4228,5.4307,5.4585,5.4596,5.4606,5.4643,5.4662,5.4678,0,0,0,0,0,0,5.3348,5.347,5.347,5.364,5.3727,5.3835,5.3917,5.3919,5.4019,5.4012,5.4055,5.4081,5.4231,5.4284,5.4213,5.447,5.4414,5.4433,5.443,5.4449,5.4463,5.4447,5.418,0,0,0,0,0,5.3373,5.3482,5.3582,5.3721,5.3765,5.3834,5.3898,5.3921,5.4013,5.405,5.4119,5.4207,5.4314,5.4384,5.4488,5.4656,5.468,5.4728,5.4742,5.4753,5.4769,5.4859,5.4881,5.4647,5.4647,5.4646,0,0,5.3425,5.3505,5.3571,5.3728,5.3799,5.3909,5.3865,5.3984,5.4066,5.4067,5.4215,5.4268,5.4369,5.4529,5.4603,5.4577,5.4838,5.4767,5.4775,5.4785,5.4872,5.4894,5.4914,5.4654,5.4653,5.4651,0,0,5.3576,5.3648,5.3772,5.3843,5.395,5.3994,5.4023,5.4131,5.4167,5.4315,5.4318,5.4415,5.4599,5.4671,5.4731,5.4906,5.4903,5.4938,5.5013,5.5101,5.512,5.5136,5.5197,5.5219,5.4953,5.4953,5.4953,0,5.3627,5.3795,5.3834,5.3954,5.4022,5.4029,5.4153,5.422,5.4355,5.4401,5.437,5.4601,5.4669,5.4845,5.4887,5.4937,5.497,5.4926,5.5114,5.5131,5.5147,5.5206,5.5229,5.4957,5.4956,5.4956,5.4956,0,5.3851,5.3967,5.4054,5.4185,5.4262,5.4384,5.444,5.4513,5.4528,5.4574,5.4724,5.4806,5.4926,5.4969,5.4985,5.5146,5.5127,5.5105,5.505,5.5172,5.5228,5.5251,5.4962,5.4961,5.496,5.4959,0,0,5.4025,5.4175,5.4206,5.4264,5.4382,5.4471,5.4591,5.4709,5.477,5.4862,5.4963,5.5118,5.5097,5.5166,5.5189,5.5266,5.5398,5.5235,5.5238,5.5261,5.5579,5.5594,5.562,5.5396,5.54,5.5404,5.557,0,5.4188,5.4403,5.4441,5.4628,5.4735,5.4741,5.4845,5.4927,5.4973,5.5068,5.5118,5.5227,5.5193,5.5234,5.531,5.5366,5.5462,5.5354,5.5488,5.5492,5.5463,5.565,5.5667,5.582,5.5592,5.5596,5.5598,0,5.4408,5.4506,5.4704,5.4805,5.4851,5.4945,5.5054,5.5146,5.5238,5.5266,5.5341,5.5355,5.5477,5.5416,5.5584,5.551,5.5566,5.5601,5.5608,5.5622,5.5553,5.5668,5.587,5.5893,5.5634,5.5631,5.5628,0,5.4513,5.4695,5.4836,5.4886,5.5008,5.5073,5.5127,5.5215,5.5282,5.5377,5.5421,5.5529,5.5588,5.567,5.5711,5.5663,5.5875,5.5818,5.59,5.5899,5.5946,5.5942,5.6159,5.5982,5.5982,5.5981,5.5981,0,5.4692,5.4813,5.4885,5.4973,5.5107,5.5148,5.5279,5.5331,5.5408,5.5504,5.5515,5.5604,5.5654,5.5749,5.5782,5.5915,5.5941,5.5966,5.5973,5.5965,5.5962,5.6003,5.5994,5.5987,5.5986,5.5985,5.5984,0,5.4833,5.4887,5.5042,5.5144,5.5172,5.5266,5.5353,5.5436,5.5481,5.5601,5.5632,5.5701,5.5814,5.5863,5.6002,5.6024,5.6175,5.6175,5.6145,5.6148,5.6226,5.6218,5.6477,5.6513,5.6312,5.6314,5.6316,0,5.4944,5.5037,5.5149,5.5214,5.527,5.5375,5.5444,5.5486,5.5557,5.5667,5.5737,5.585,5.5943,5.6122,5.6184,5.6289,5.6291,5.6375,5.6307,5.6296,5.6292,5.6286,5.6295,5.6387,5.6389,5.6391,5.6392,0,5.5135,5.5156,5.5256,5.5364,5.5446,5.5534,5.5619,5.5671,5.5726,5.5805,5.5921,5.5993,5.6134,5.6246,5.6354,5.6407,5.6409,5.6413,5.6437,5.643,5.6409,5.642,5.6178,5.6407,5.6405,5.6404,5.6404,5.6403,5.5264,5.5346,5.5437,5.5547,5.5615,5.5694,5.5777,5.5832,5.593,5.6049,5.6067,5.619,5.6277,5.6423,5.648,5.6575,5.6554,5.659,5.6599,5.6607,5.6612,5.6393,5.6595,5.6594,5.6594,5.6594,5.6594,0,5.5454,5.5513,5.5613,5.5732,5.5818,5.5812,5.5906,5.5977,5.6086,5.6167,5.6258,5.639,5.6497,5.6566,5.6674,5.6737,5.674,5.6764,5.676,5.6771,5.6624,5.6592,5.6759,5.6759,5.6759,5.6759,5.6759,5.6759,5.5563,5.5702,5.5733,5.5904,5.5962,5.6083,5.6137,5.6209,5.6273,5.642,5.651,5.6555,5.663,5.6743,5.6841,5.6858,5.6897,5.6922,5.6938,5.6799,5.6782,5.6766,5.6736,5.693,5.693,5.7077,5.7078,5.7079]}]]